GW4716 Weather Reports


Display with metric or nautical units.
time (UTC)temp
F
wind
direction
speed
MPH
gust
MPH
rain 1hr
in
rain 24hr
in
rain mn
in
humidity
%
barometer
mb
20260510033336 53 214 0.0 0.0 0.00 0.00 0.00 74 1013.9
20260510032832 53 212 0.0 0.0 0.00 0.00 0.00 74 1013.9
20260510032329 53 273 0.0 0.0 0.00 0.00 0.00 72 1013.7
20260510031825 53 273 0.0 0.0 0.00 0.00 0.00 73 1013.6
20260510031320 54 273 0.0 0.0 0.00 0.00 0.00 72 1013.7
20260510030815 54 33 0.0 0.0 0.00 0.00 0.00 72 1013.8
20260510030311 54 55 0.0 0.0 0.00 0.00 0.00 71 1013.8
20260510025809 54 268 0.0 0.0 0.00 0.00 0.00 69 1013.5
20260510025306 55 239 0.0 0.0 0.00 0.00 0.00 70 1013.9
20260510024802 55 252 0.0 0.0 0.00 0.00 0.00 69 1013.8
20260510024300 54 247 0.0 0.0 0.00 0.00 0.00 71 1013.8
20260510023755 55 247 0.0 0.0 0.00 0.00 0.00 70 1013.6
20260510023253 55 247 0.0 1.0 0.00 0.00 0.00 69 1013.5
20260510022749 54 244 0.0 0.0 0.00 0.00 0.00 70 1013.6
20260510022249 54 245 0.0 0.0 0.00 0.00 0.00 69 1013.5
20260510021749 55 245 0.0 0.0 0.00 0.00 0.00 68 1013.3
20260510021247 55 245 0.0 0.0 0.00 0.00 0.00 68 1013.3
20260510020742 56 245 0.0 0.0 0.00 0.00 0.00 66 1013.0
20260510020242 56 245 0.0 0.0 0.00 0.00 0.00 66 1013.0
20260510015739 56 245 0.0 1.0 0.00 0.00 0.00 66 1013.0
20260510015235 57 245 0.0 1.0 0.00 0.00 0.00 66 1012.9
20260510014730 57 249 1.0 2.0 0.00 0.00 0.00 64 1012.9
20260510014228 58 248 0.0 1.0 0.00 0.00 0.00 63 1012.8
20260510013723 59 248 2.0 2.0 0.00 0.00 0.00 60 1012.4
20260510013219 58 250 2.0 2.0 0.00 0.00 0.00 61 1012.4
20260510012719 57 245 0.0 0.0 0.00 0.00 0.00 64 1012.5
20260510012214 57 245 0.0 0.0 0.00 0.00 0.00 62 1012.3
20260510011709 58 244 0.0 0.0 0.00 0.00 0.00 61 1012.2
20260510011205 58 243 0.0 0.0 0.00 0.00 0.00 61 1012.0
20260510010701 58 243 0.0 0.0 0.00 0.00 0.00 61 1012.0
20260510010158 60 243 0.0 0.0 0.00 0.00 0.00 59 1011.9
20260510005655 60 246 2.0 2.0 0.00 0.00 0.00 56 1011.7
20260510005151 60 244 1.0 2.0 0.00 0.00 0.00 56 1011.7
20260510004650 60 244 2.0 2.0 0.00 0.00 0.00 56 1011.9
20260510004148 60 223 3.0 3.0 0.00 0.00 0.00 57 1011.6
20260510003645 61 240 2.0 2.0 0.00 0.00 0.00 55 1011.6
20260510003140 61 240 2.0 2.0 0.00 0.00 0.00 55 1011.5
20260510002635 61 241 2.0 2.0 0.00 0.00 0.00 55 1011.5
20260510002132 61 239 2.0 2.0 0.00 0.00 0.00 54 1011.4
20260510001629 62 243 2.0 2.0 0.00 0.00 0.00 54 1011.4
20260510001128 62 226 0.0 2.0 0.00 0.00 0.00 53 1011.5
20260510000627 62 248 2.0 3.0 0.00 0.00 0.00 52 1011.3
20260510000125 62 226 2.0 2.0 0.00 0.00 0.00 53 1011.1
20260509235621 63 213 1.0 2.0 0.00 0.00 0.00 52 1011.1
20260509235118 63 231 2.0 2.0 0.00 0.00 0.00 53 1011.0
20260509234614 63 247 2.0 2.0 0.00 0.00 0.00 53 1011.1
20260509234112 63 239 1.0 3.0 0.00 0.00 0.00 52 1011.2
20260509233610 64 250 2.0 2.0 0.00 0.00 0.00 52 1011.1
20260509233107 64 223 0.0 4.0 0.00 0.00 0.00 53 1011.2
20260509232603 65 198 1.0 2.0 0.00 0.00 0.00 50 1011.1
20260509232100 66 147 3.0 6.0 0.00 0.00 0.00 46 1011.2
20260509231556 66 109 3.0 3.0 0.00 0.00 0.00 47 1011.2
20260509231054 67 140 2.0 6.0 0.00 0.00 0.00 45 1011.2
20260509230550 67 193 3.0 4.0 0.00 0.00 0.00 49 1011.0
20260509230048 68 187 2.0 3.0 0.00 0.00 0.00 45 1011.2
20260509225543 69 190 0.0 1.0 0.00 0.00 0.00 45 1011.1
20260509225039 69 151 0.0 2.0 0.00 0.00 0.00 46 1011.1
20260509224535 69 19 1.0 1.0 0.00 0.00 0.00 43 1011.3
20260509224032 69 20 0.0 0.0 0.00 0.00 0.00 48 1011.0
20260509223529 69 19 0.0 2.0 0.00 0.00 0.00 44 1011.1
20260509223027 69 312 0.0 1.0 0.00 0.00 0.00 45 1011.0
20260509222522 69 329 1.0 2.0 0.00 0.00 0.00 46 1011.0
20260509222018 69 128 1.0 3.0 0.00 0.00 0.00 42 1011.1
20260509221514 69 18 2.0 2.0 0.00 0.00 0.00 43 1011.2
20260509221010 69 70 1.0 2.0 0.00 0.00 0.00 42 1011.1
20260509220506 69 102 0.0 0.0 0.00 0.00 0.00 42 1011.0
20260509220003 69 93 0.0 3.0 0.00 0.00 0.00 42 1010.9
20260509215458 69 102 0.0 4.0 0.00 0.00 0.00 42 1010.9
20260509214956 69 21 1.0 2.0 0.00 0.00 0.00 42 1010.9
20260509214453 69 2 0.0 2.0 0.00 0.00 0.00 42 1010.8
20260509213949 69 42 2.0 3.0 0.00 0.00 0.00 42 1010.7
20260509213445 69 12 3.0 3.0 0.00 0.00 0.00 44 1010.8
20260509212943 69 13 2.0 2.0 0.00 0.00 0.00 40 1010.5
20260509212440 70 27 4.0 4.0 0.00 0.00 0.00 41 1010.5
20260509211936 70 60 1.0 2.0 0.00 0.00 0.00 39 1010.5
20260509211432 70 136 2.0 3.0 0.00 0.00 0.00 40 1010.5
20260509210928 70 198 1.0 2.0 0.00 0.00 0.00 39 1010.5
20260509210426 70 0 3.0 6.0 0.00 0.00 0.00 38 1010.4
20260509205921 70 43 1.0 1.0 0.00 0.00 0.00 37 1010.2
20260509205420 70 114 0.0 0.0 0.00 0.00 0.00 38 1010.2
20260509204917 70 146 1.0 2.0 0.00 0.00 0.00 37 1010.2
20260509204413 70 206 0.0 2.0 0.00 0.00 0.00 37 1010.2
20260509203910 71 114 4.0 7.0 0.00 0.00 0.00 38 1010.2
20260509203406 71 10 1.0 2.0 0.00 0.00 0.00 42 1010.0
20260509202903 71 68 0.0 1.0 0.00 0.00 0.00 37 1010.0
20260509202359 71 169 2.0 7.0 0.00 0.00 0.00 36 1010.1
20260509201854 71 96 0.0 0.0 0.00 0.00 0.00 35 1010.0
20260509201350 71 187 0.0 2.0 0.00 0.00 0.00 38 1009.7
20260509200847 71 153 3.0 3.0 0.00 0.00 0.00 35 1010.0
20260509200342 72 145 2.0 3.0 0.00 0.00 0.00 35 1009.8
20260509195840 72 64 4.0 4.0 0.00 0.00 0.00 35 1010.1
20260509195339 71 43 0.0 2.0 0.00 0.00 0.00 39 1010.0
20260509194839 70 121 2.0 2.0 0.00 0.00 0.00 39 1009.8
20260509194335 70 138 1.0 2.0 0.00 0.00 0.00 40 1010.0
20260509193832 70 167 2.0 4.0 0.00 0.00 0.00 41 1010.0
20260509193332 70 184 1.0 7.0 0.00 0.00 0.00 41 1010.0
20260509192829 71 170 5.0 7.0 0.00 0.00 0.00 40 1009.8
20260509192325 72 133 3.0 7.0 0.00 0.00 0.00 40 1010.1
20260509191820 73 90 2.0 6.0 0.00 0.00 0.00 41 1010.2
20260509191316 71 118 3.0 8.0 0.00 0.00 0.00 42 1010.3
20260509190812 71 154 1.0 3.0 0.00 0.00 0.00 43 1010.2
20260509190310 70 162 4.0 6.0 0.00 0.00 0.00 44 1010.4
20260509185807 69 175 4.0 7.0 0.00 0.00 0.00 46 1010.4
20260509185306 70 186 5.0 7.0 0.00 0.00 0.00 43 1010.1
20260509184800 71 143 2.0 6.0 0.00 0.00 0.00 43 1010.4
20260509184258 71 169 5.0 7.0 0.00 0.00 0.00 40 1010.4
20260509183754 70 54 4.0 8.0 0.00 0.00 0.00 43 1010.6
20260509183250 71 95 1.0 4.0 0.00 0.00 0.00 43 1010.7
20260509182745 70 46 3.0 7.0 0.00 0.00 0.00 44 1010.6
20260509182237 70 150 0.0 3.0 0.00 0.00 0.00 43 1010.7
20260509181734 69 167 0.0 3.0 0.00 0.00 0.00 50 1011.0
20260509181232 70 121 0.0 1.0 0.00 0.00 0.00 46 1011.2
20260509180729 68 176 0.0 1.0 0.00 0.00 0.00 43 1011.2
20260509180225 67 19 2.0 4.0 0.00 0.00 0.00 47 1011.2
20260509175721 68 67 2.0 3.0 0.00 0.00 0.00 49 1011.3
20260509175218 69 62 1.0 2.0 0.00 0.00 0.00 48 1011.5
20260509174714 67 132 0.0 1.0 0.00 0.00 0.00 50 1011.6
20260509174209 66 134 1.0 2.0 0.00 0.00 0.00 52 1011.8
20260509173705 65 134 1.0 1.0 0.00 0.00 0.00 51 1011.7
20260509173155 64 67 2.0 2.0 0.00 0.00 0.00 54 1012.2
20260509172652 65 28 0.0 2.0 0.00 0.00 0.00 51 1011.9
20260509172149 64 340 0.0 2.0 0.00 0.00 0.00 56 1012.0
20260509171643 64 1 3.0 4.0 0.00 0.00 0.00 56 1012.2
20260509171140 62 346 3.0 4.0 0.00 0.00 0.00 57 1012.3
20260509170636 61 349 3.0 4.0 0.00 0.00 0.00 57 1012.3
20260509170133 61 0 1.0 1.0 0.00 0.00 0.00 64 1012.3
20260509165631 61 335 1.0 4.0 0.00 0.00 0.00 62 1012.5
20260509165127 61 23 3.0 4.0 0.00 0.00 0.00 63 1012.3
20260509164623 61 342 0.0 2.0 0.00 0.00 0.00 64 1012.3
20260509164119 59 281 0.0 0.0 0.00 0.00 0.00 71 1012.5
20260509163617 59 31 0.0 2.0 0.00 0.00 0.00 69 1012.3
20260509163112 59 325 2.0 2.0 0.00 0.00 0.00 63 1012.4
20260509162610 59 355 3.0 6.0 0.00 0.00 0.00 61 1012.4
20260509162106 60 323 1.0 4.0 0.00 0.00 0.00 58 1012.5
20260509161602 61 349 6.0 9.0 0.00 0.00 0.00 55 1012.3
20260509161057 61 333 5.0 8.0 0.00 0.00 0.00 55 1012.3
20260509160553 62 323 3.0 3.0 0.00 0.00 0.00 54 1012.2
20260509160048 63 352 4.0 4.0 0.00 0.00 0.00 53 1011.9
20260509155545 64 326 5.0 8.0 0.00 0.00 0.00 52 1011.9
20260509155041 65 0 6.0 8.0 0.00 0.00 0.00 52 1011.8
20260509154537 65 348 2.0 7.0 0.00 0.00 0.00 50 1011.9
20260509154035 65 359 2.0 3.0 0.00 0.00 0.00 51 1011.9
20260509153532 65 329 1.0 4.0 0.00 0.00 0.00 50 1011.7
20260509153029 65 341 1.0 2.0 0.00 0.00 0.00 48 1011.9
20260509152524 65 5 1.0 3.0 0.00 0.00 0.00 51 1011.5
20260509152022 65 357 2.0 4.0 0.00 0.00 0.00 48 1011.6
20260509151518 65 8 3.0 4.0 0.00 0.00 0.00 48 1011.5
20260509151016 66 353 2.0 4.0 0.00 0.00 0.00 50 1011.7
20260509150513 67 235 0.0 2.0 0.00 0.00 0.00 45 1011.9
20260509150012 66 71 1.0 1.0 0.00 0.00 0.00 46 1012.0
20260509145507 65 96 1.0 3.0 0.00 0.00 0.00 46 1012.0
20260509145002 65 139 1.0 2.0 0.00 0.00 0.00 46 1012.0
20260509144459 65 154 2.0 2.0 0.00 0.00 0.00 48 1011.7
20260509143956 65 147 0.0 2.0 0.00 0.00 0.00 47 1011.9
20260509143453 66 62 0.0 3.0 0.00 0.00 0.00 47 1011.8
20260509142950 66 180 3.0 4.0 0.00 0.00 0.00 47 1012.0
20260509142446 64 63 0.0 3.0 0.00 0.00 0.00 51 1011.9
20260509141942 64 161 3.0 4.0 0.00 0.00 0.00 51 1011.9
20260509141438 63 170 4.0 6.0 0.00 0.00 0.00 52 1012.2
20260509140936 64 184 2.0 4.0 0.00 0.00 0.00 51 1012.2
20260509140432 64 145 3.0 7.0 0.00 0.00 0.00 51 1012.4
20260509135930 64 160 1.0 6.0 0.00 0.00 0.00 53 1012.2
20260509135427 64 131 2.0 4.0 0.00 0.00 0.00 54 1012.3
20260509134924 64 191 1.0 3.0 0.00 0.00 0.00 53 1012.5
20260509134422 61 88 2.0 6.0 0.00 0.00 0.00 57 1012.4
20260509133919 61 123 1.0 2.0 0.00 0.00 0.00 56 1012.6
20260509133416 61 130 2.0 3.0 0.00 0.00 0.00 59 1012.7
20260509132914 60 100 0.0 0.0 0.00 0.00 0.00 57 1012.7
20260509132412 60 114 1.0 3.0 0.00 0.00 0.00 59 1012.8
20260509131909 60 26 1.0 2.0 0.00 0.00 0.00 57 1012.8
20260509131406 59 214 0.0 0.0 0.00 0.00 0.00 56 1013.0
20260509130902 58 138 0.0 0.0 0.00 0.00 0.00 58 1013.1
20260509130357 58 174 1.0 1.0 0.00 0.00 0.00 58 1013.0
20260509125855 58 222 0.0 1.0 0.00 0.00 0.00 58 1012.7
20260509125351 58 236 0.0 0.0 0.00 0.00 0.00 59 1012.8
20260509124847 57 235 0.0 0.0 0.00 0.00 0.00 59 1012.6
20260509124345 57 331 0.0 1.0 0.00 0.00 0.00 61 1012.6
20260509123843 57 279 0.0 0.0 0.00 0.00 0.00 58 1012.6
20260509123340 56 257 0.0 0.0 0.00 0.00 0.00 58 1012.7
20260509122835 56 257 0.0 1.0 0.00 0.00 0.00 61 1012.8
20260509122332 56 245 0.0 0.0 0.00 0.00 0.00 61 1012.7
20260509121829 55 245 0.0 0.0 0.00 0.00 0.00 64 1012.7
20260509121326 55 245 0.0 0.0 0.00 0.00 0.00 66 1012.6
20260509120824 55 245 0.0 0.0 0.00 0.00 0.00 67 1012.8
20260509120322 54 245 0.0 0.0 0.00 0.00 0.00 67 1012.8
20260509115820 54 245 0.0 0.0 0.00 0.00 0.00 68 1012.9
20260509115316 53 245 0.0 1.0 0.00 0.00 0.00 68 1013.0
20260509114814 53 245 0.0 1.0 0.00 0.00 0.00 63 1012.8
20260509114313 53 245 0.0 0.0 0.00 0.00 0.00 67 1012.9
20260509113812 52 246 1.0 1.0 0.00 0.00 0.00 67 1013.1
20260509113308 52 245 0.0 0.0 0.00 0.00 0.00 68 1012.7
20260509112805 52 246 0.0 0.0 0.00 0.00 0.00 67 1012.8
20260509112306 52 246 0.0 0.0 0.00 0.00 0.00 68 1012.6
20260509111759 52 246 0.0 0.0 0.00 0.00 0.00 68 1012.8
20260509111256 52 246 0.0 0.0 0.00 0.00 0.00 67 1012.7
20260509110754 52 246 0.0 0.0 0.00 0.00 0.00 66 1012.9
20260509110250 52 246 0.0 0.0 0.00 0.00 0.00 65 1012.8
20260509105748 52 246 0.0 0.0 0.00 0.00 0.00 65 1012.8
20260509105245 52 246 0.0 0.0 0.00 0.00 0.00 65 1012.8
20260509104742 51 246 0.0 0.0 0.00 0.00 0.00 66 1012.7
20260509104239 51 246 0.0 0.0 0.00 0.00 0.00 65 1012.8
20260509103737 51 246 0.0 0.0 0.00 0.00 0.00 66 1012.8
20260509103234 51 245 0.0 0.0 0.00 0.00 0.00 66 1012.8
20260509102732 51 245 0.0 0.0 0.00 0.00 0.00 66 1012.7
20260509102228 51 245 0.0 1.0 0.00 0.00 0.00 66 1012.6
20260509101719 51 245 0.0 0.0 0.00 0.00 0.00 67 1012.6
20260509101216 51 245 0.0 1.0 0.00 0.00 0.00 67 1012.6
20260509100713 51 246 0.0 1.0 0.00 0.00 0.00 68 1012.6
20260509100210 51 246 0.0 0.0 0.00 0.00 0.00 66 1012.7
20260509095707 52 246 0.0 0.0 0.00 0.00 0.00 64 1012.7
20260509095205 52 246 0.0 0.0 0.00 0.00 0.00 65 1012.8
20260509094701 52 246 0.0 0.0 0.00 0.00 0.00 62 1012.4
20260509094158 53 246 0.0 0.0 0.00 0.00 0.00 62 1012.5
20260509093656 53 246 0.0 0.0 0.00 0.00 0.00 62 1012.6
20260509093153 53 236 0.0 1.0 0.00 0.00 0.00 61 1012.6
20260509092651 53 220 0.0 0.0 0.00 0.00 0.00 61 1012.8
20260509092149 53 220 0.0 0.0 0.00 0.00 0.00 60 1012.6
20260509091647 53 220 1.0 1.0 0.00 0.00 0.00 59 1012.8
20260509091142 54 220 0.0 1.0 0.00 0.00 0.00 59 1012.7
20260509090640 54 220 1.0 1.0 0.00 0.00 0.00 59 1012.8
20260509090137 54 220 0.0 0.0 0.00 0.00 0.00 60 1012.7
20260509085635 54 220 0.0 0.0 0.00 0.00 0.00 58 1012.8
20260509085130 55 219 0.0 0.0 0.00 0.00 0.00 58 1012.9
20260509084628 55 219 0.0 0.0 0.00 0.00 0.00 56 1013.0
20260509084125 55 156 3.0 4.0 0.00 0.00 0.00 53 1012.9
20260509083622 55 227 0.0 1.0 0.00 0.00 0.00 56 1012.8
20260509083118 55 222 1.0 2.0 0.00 0.00 0.00 60 1013.1
20260509082616 55 218 1.0 1.0 0.00 0.00 0.00 58 1013.0
20260509082113 55 210 0.0 0.0 0.00 0.00 0.00 59 1013.0
20260509081610 55 216 1.0 1.0 0.00 0.00 0.00 57 1012.8
20260509081107 55 215 1.0 1.0 0.00 0.00 0.00 56 1013.0
20260509080605 55 208 0.0 1.0 0.00 0.00 0.00 55 1013.0
20260509080103 56 227 1.0 3.0 0.00 0.00 0.00 53 1013.1
20260509075601 56 205 1.0 2.0 0.00 0.00 0.00 53 1013.1
20260509075059 56 236 1.0 7.0 0.00 0.00 0.00 51 1013.1
20260509074555 56 156 2.0 3.0 0.00 0.00 0.00 51 1013.0
20260509074052 56 257 3.0 6.0 0.00 0.00 0.00 52 1013.1
20260509073548 56 207 2.0 4.0 0.00 0.00 0.00 51 1013.1
20260509073044 55 167 4.0 4.0 0.00 0.00 0.00 52 1013.1
20260509072540 55 220 0.0 2.0 0.00 0.00 0.00 57 1013.2
20260509072038 56 186 0.0 3.0 0.00 0.00 0.00 54 1013.2
20260509071534 56 223 1.0 3.0 0.00 0.00 0.00 52 1013.2
20260509071032 56 199 0.0 1.0 0.00 0.00 0.00 53 1013.3
20260509070529 56 197 1.0 2.0 0.00 0.00 0.00 52 1013.4
20260509070025 56 189 0.0 2.0 0.00 0.00 0.00 51 1013.4
20260509065520 56 259 1.0 2.0 0.00 0.00 0.00 52 1013.2
20260509065017 56 221 0.0 3.0 0.00 0.00 0.00 52 1013.5
20260509064515 56 165 1.0 4.0 0.00 0.00 0.00 53 1013.4
20260509064013 55 231 1.0 6.0 0.00 0.00 0.00 55 1013.3
20260509063508 55 179 2.0 4.0 0.00 0.00 0.00 55 1013.3
20260509063005 53 203 2.0 2.0 0.00 0.00 0.00 57 1013.3
20260509062502 52 205 1.0 2.0 0.00 0.00 0.00 59 1013.7
20260509062000 53 220 0.0 1.0 0.00 0.00 0.00 59 1013.7
20260509061457 53 220 1.0 1.0 0.00 0.00 0.00 57 1013.6
20260509060954 54 229 1.0 2.0 0.00 0.00 0.00 56 1013.6
20260509060452 54 245 1.0 2.0 0.00 0.00 0.00 55 1013.7
20260509055947 55 237 1.0 2.0 0.00 0.00 0.00 56 1013.7
20260509055442 54 234 1.0 2.0 0.00 0.00 0.00 56 1013.7
20260509054939 55 236 1.0 2.0 0.00 0.00 0.00 54 1013.6
20260509054436 54 250 1.0 2.0 0.00 0.00 0.00 56 1013.6
20260509053934 55 225 1.0 4.0 0.00 0.00 0.00 55 1013.8
20260509053432 54 245 1.0 2.0 0.00 0.00 0.00 55 1013.8
20260509052929 55 232 1.0 2.0 0.00 0.00 0.00 53 1014.0
20260509052426 55 198 2.0 3.0 0.00 0.00 0.00 52 1013.8
20260509051924 55 262 2.0 3.0 0.00 0.00 0.00 53 1013.9
20260509051422 56 164 2.0 3.0 0.00 0.00 0.00 52 1014.0
20260509050918 56 167 3.0 4.0 0.00 0.00 0.00 51 1014.0
20260509050415 56 236 1.0 3.0 0.00 0.00 0.00 52 1013.9
20260509045912 56 220 2.0 3.0 0.00 0.00 0.00 51 1013.9
20260509045409 56 237 1.0 3.0 0.00 0.00 0.00 51 1014.0
20260509044906 56 237 1.0 2.0 0.00 0.00 0.00 51 1013.9
20260509044404 57 208 2.0 3.0 0.00 0.00 0.00 51 1013.9
20260509043900 57 243 1.0 3.0 0.00 0.00 0.00 51 1013.9
20260509043356 57 255 1.0 3.0 0.00 0.00 0.00 50 1013.9
20260509042852 57 212 2.0 3.0 0.00 0.00 0.00 51 1014.0
20260509042349 58 139 2.0 3.0 0.00 0.00 0.00 48 1013.8
20260509041845 58 216 2.0 6.0 0.00 0.00 0.00 48 1014.0
20260509041342 58 197 4.0 4.0 0.00 0.00 0.00 48 1013.8
20260509040841 57 220 1.0 4.0 0.00 0.00 0.00 50 1013.8
20260509040338 57 272 0.0 1.0 0.00 0.00 0.00 49 1013.7
20260509035835 57 73 2.0 4.0 0.00 0.00 0.00 48 1013.8
20260509035332 58 179 4.0 4.0 0.00 0.00 0.00 48 1013.8
20260509034828 58 230 0.0 3.0 0.00 0.00 0.00 50 1013.7
20260509034326 58 221 0.0 0.0 0.00 0.00 0.00 49 1013.7
20260509033822 59 207 2.0 4.0 0.00 0.00 0.00 47 1013.7